Location: Paderno d�Adda
(45.6667°N, 9.4333°E)
Time: 21:04:05
(UTC+00:00)

MOS 1 Rocket - Pass Details

Date: 19 September 2020
Orbit: 614 x 831 km, 97.4° (Epoch: 27 October)

Event Time Altitude Azimuth Distance (km) Brightness Sun altitude
Rises 18:08:16 0° 18° (NNE) 3,010 6.5 -8.3°
Reaches altitude 10° 18:10:38 10° 24° (NNE) 2,064 5.6 -8.7°
Maximum altitude 18:14:55 45° 98° (E) 865 3.4 -9.5°
Drops below altitude 10° 18:19:02 10° 171° (S) 1,978 5.4 -10.2°
Sets 18:21:15 0° 178° (S) 2,871 6.3 -10.6°
